FENGYUN 1C DEB

Satellite information

Favourite Embed

Satellite Type and Status

DEBRISIN ORBIT

Key statistics

Satellite FENGYUN 1C DEB at a glance.

Uptime

9555

Days in orbit

Revolutions

≈ 14.1

Per day

Orbit

SSO

Sun Synchronous Orbit

Inclination

99.3

Latest

Satellite identification and parameters

Extended collection of information and parameters for FENGYUN 1C DEB.

Object identification

Identified? True

Debris? True

Object name: FENGYUN 1C DEB

International designator: 1999-025AUM

Object number (NORAD): 30803

Object ID (CCSDS): 30803

Country: PEOPLES REPUBLIC OF CHINA (PRC)

Current information (Y/N): Y

RCS size: SMALL

Orbital parameters

Period: 102.104 minutes

Inclination: 99.2566 deg

SMA: 7236.402 km

Apoapsis: 934.47 km

Periapsis: 782.065 km

RAAN: 216.3846 deg

Eccentricy: 0.0105304

Argument of periapsis: 285.131 deg

Mean anomaly: 197.5045 deg

Mean motion: 14.10323345 rev/day

Mean motion (dot): 0.00001534 rev/day2

B* drag term: 0.00084683 1/REarth

Two-line elements (TLE)

Creation date: July 6, 2025, 10:36 p.m.

Reference frame: TEME

Reference center: EARTH

Epoch: July 6, 2025, 9:40 p.m. UTC

TLE line 0: 0 FENGYUN 1C DEB

TLE line 1: 1 30803U 99025AUM 25187.90296591 .00001534 00000-0 84683-3 0 9998

TLE line 2: 2 30803 99.2566 216.3846 0105304 285.1310 197.5045 14.10323345937664

Live tracking on map

Real-time ground track for satellite FENGYUN 1C DEB.

In-orbit conjunctions

A list of the most updated potential collisions computed for object FENGYUN 1C DEB.

Target Orbit TCA Probability of collision Miss distance Type
DELTA 1 DEB SSO 2025-06-16 18:00:46 0.000537767 29.0 (m) DEBRIS
SL-12 R/B(2) LEO 2025-05-25 14:49:14 0.0001620001 424.0 (m) ROCKET BODY
CZ-6A DEB LEO 2025-01-04 06:51:43 0.0002878167 539.0 (m) DEBRIS
PEGASUS R/B LEO 2024-08-08 01:13:17 0.0001829694 750.0 (m) ROCKET BODY

Associated space launch

Chinese polar orbiting meteorological satellite

FENGYUN 1C DEB was lifted into orbit during the mission ‘Long March 4B | Feng Yun 1C’, on board a Long March 4B space rocket.

The launch took place on May 10, 1999, 1:33 a.m. from Launch Complex 7.

For more information about the launch, click the button.

Launch to space Long March 4B | Feng Yun 1C
Long March 4B | Feng Yun 1C

Agency: N/A

Status: Launch Successful

Launch date: May 10, 1999, 1:33 a.m. UTC

Rocket: Long March 4B

Launch pad: Launch Complex 7

Location: Taiyuan Satellite Launch Center, People's Republic of China

...

Latest news about this satellite

There are no fresh news available about this satellite. Check back as we update our databases every day.


Newsletter sign-up

Weekly statistics, charts and insights to help you stay on top of the space industry.